Regional Weather Roundup
Issued by NWS

Home | Current Version | Previous Version | Text Only | Print | Product List | Glossary On
Versions: 1 2 3 4 5 6 7 8 9 10 11 12 13 14 15 16 17 18 19 20 21 22 23 24 25 26 27 28 29 30 31 32 33 34 35 36 37 38 39 40 41 42 43 44 45 46 47 48 49 50
000
ASUS45 KBOU 301607
RWRCO

WEATHER ROUNDUP FOR COLORADO
NATIONAL WEATHER SERVICE DENVER/BOULDER CO
1000 AM MDT SAT JUL 30 2016

NOTE: "FAIR" INDICATES FEW OR NO CLOUDS BELOW 12000 FEET WITH NO
SIGNIFICANT WEATHER AND/OR OBSTRUCTIONS TO VISIBILITY.

COZ001>005-013-030-031-301700-
...NORTHWEST COLORADO...

CITY           SKY/WX    TMP DP  RH WIND       PRES   REMARKS
CRAIG          FAIR      73  42  32 CALM      30.18F
HAYDEN         FAIR      72  36  26 E7        30.20F
MEEKER         FAIR      74  38  27 VRB3      30.19F
MOUNT WERNER   NOT AVBL
STEAMBOAT SPGS FAIR      65  42  43 CALM      30.22F
WALDEN         FAIR      64  34  32 CALM      30.30F
$$

COZ006>008-011-301700-
...WEST CENTRAL VALLEYS...

CITY           SKY/WX    TMP DP  RH WIND       PRES   REMARKS
GRAND JUNCTION FAIR      82  38  20 SE12      30.06F
MONTROSE       FAIR      75  45  34 N7        30.17R
EAGLE          SUNNY     72  37  28 CALM      30.23F
RIFLE          FAIR      74  41  30 CALM      30.14F
DELTA          NOT AVBL
NUCLA          NOT AVBL
$$

COZ017>023-064>068-301700-
...SOUTHWEST COLORADO...

CITY           SKY/WX    TMP DP  RH WIND       PRES   REMARKS
DURANGO        FAIR      74  42  31 SE8       30.25F
CORTEZ         FAIR      79  45  29 MISG      30.18S
PAGOSA SPRINGS FAIR      73  37  27 W3        30.34F
TELLURIDE      FAIR      69  37  30 W7        30.44S
WOLF CREEK PAS PTSUNNY   52  39  62 SW10G16   30.66S
$$

COZ009-010-012-014-032>034-037-058>063-301700-
...CENTRAL COLORADO...

CITY           SKY/WX    TMP DP  RH WIND       PRES   REMARKS
ASPEN          FAIR      73  39  29 N5        30.28S
BUENA VISTA    FAIR      70  45  40 E8        30.30F
COPPER MTN     FAIR      61  23  23 NW18G32   30.60F
BERTHOUD PASS  FAIR      50  36  57 NW26G36   30.60S
COTTONWOOD PAS FAIR      68  45  42 CALM      30.44F
GUNNISON       FAIR      66  39  37 SW3       30.34F
KREMMLING      FAIR      66  36  32 CALM      30.27F
LEADVILLE      FAIR      66  36  32 VRB7      30.43F
MONARCH PASS   FAIR      55  34  44 MISG      30.72S
SALIDA         FAIR      71  47  42 N5        30.34F
SUNLIGHT       FAIR      66  36  32 MISG      30.56S
WILKERSON PASS FAIR      57  43  58 W9        30.56S
$$

COZ069>075-301700-
...SAN LUIS VALLEY/SANGRE DE CRISTO MOUNTAINS...

CITY           SKY/WX    TMP DP  RH WIND       PRES   REMARKS
ALAMOSA        FAIR      69  45  41 VRB3      30.30S
LA VETA PASS   FAIR      63  41  45 S10G18    30.47F
SAGUACHE       FAIR      68  43  40 SW5       30.34F
$$

COZ035-036-038>040-301700-
...NORTHERN COLORADO FRONT RANGE...

CITY           SKY/WX    TMP DP  RH WIND       PRES   REMARKS
DENVER INTL AP FAIR      73  59  61 N9        30.07R
DMNS CITY PARK   N/A     73  60  63 N12       30.07R
AURORA         MOSUNNY   71  60  67 N7        30.09R
FRONT RANGE AP MOSUNNY   75  59  57 N5        30.08S
ERIE MUNI ARPT FAIR      73  61  67 N7        30.06S
BOULDER MUN AP FAIR      72  59  64 N5        30.07S
CENTENNIAL     FAIR      73  57  57 N12       30.09R
BROOMFIELD     SUNNY     72  59  64 N7        30.10R
LONGMONT       NOT AVBL
$$

COZ041-046-047-076>085-087-088-301700-
...PIKES PEAK/PALMER DIVIDE AND SOUTHERN FOOTHILLS...

CITY           SKY/WX    TMP DP  RH WIND       PRES   REMARKS
COLO. SPRINGS  FAIR      68  58  70 VRB3      30.15F
A. F. ACADEMY  SUNNY     70  58  63 VRB5      30.14F
SCHRIEVER AFB  NOT AVBL
ELLICOTT       NOT AVBL
FALCON         FAIR      71  58  62 W8        30.18F
FORT CARSON    FAIR      69  60  73 VRB1      30.11F
LIMON          FAIR      74  58  57 SE9       30.07F
MONUMENT HILL  FAIR      79  46  31 W8        30.18F
TRINIDAD       NOT AVBL
$$

COZ042>045-048>051-090-091-301700-
...NORTHEAST COLORADO...

CITY           SKY/WX    TMP DP  RH WIND       PRES   REMARKS
GREELEY ARPT   FAIR      72  63  73 CALM      30.06R
AKRON          FAIR      76  58  53 SE7       30.04F
BURLINGTON     FAIR      77  58  51 S5        30.03F
WRAY           FAIR      79  61  53 S7        30.01F
STERLING       NOT AVBL
HOLYOKE        NOT AVBL
FORT MORGAN    NOT AVBL
$$

COZ086-089-092>099-301700-
...SOUTHEAST COLORADO...

CITY           SKY/WX    TMP DP  RH WIND       PRES   REMARKS
PUEBLO         FAIR      78  60  53 W6        30.04F
LA JUNTA       FAIR      75  59  57 VRB7      30.02F
LAMAR          FAIR      80  59  48 W15G21    29.98R
SPRINGFIELD      N/A     82  55  39 SW20G29   30.03F
$$



USA.gov is the U.S. government's official web portal to all federal, state and local government web resources and services.